This demonstration page uses our WeatherBlox Daily Observations layout. Learn more.

Left ArrowRight Arrow

36.17497, -115.13722

Hourly Observations for April 24, 2017

Temp ( °F °C ) Dew Point ( °F °C ) Humidity (%) Winds ( mph kmh ) Pressure ( in mb ) Visibility ( mi km ) Precip ( " mm )
12:53 am 00:53 Clear 67 19.4 22 -5.6 18 18 NNW 6 9 29.65 1004 10 16 N/A
1:53 am 01:53 Clear 65 18.3 22 -5.6 19 19 N 8 13 29.66 1004 10 16 N/A
2:53 am 02:53 Clear 64 17.8 22 -5.6 20 20 NW 5 7 29.63 1004 10 16 N/A
3:53 am 03:53 Clear 62 16.7 23 -5 22 22 N 8 13 29.65 1004 10 16 N/A
4:53 am 04:53 Clear 62 16.7 23 -5 22 22 NW 3 6 29.65 1004 10 16 N/A
5:53 am 05:53 Clear 61 16.1 24 -4.4 24 24 NW 5 7 29.66 1004 10 16 N/A
6:53 am 06:53 Sunny 62 16.7 24 -4.4 23 23 N N/A 29.68 1005 10 16 N/A
7:53 am 07:53 Sunny 63 17.2 28 -2.2 27 27 N 5 7 29.69 1005 10 16 N/A
8:53 am 08:53 Sunny 68 20 27 -2.8 21 21 N N/A 29.70 1006 10 16 N/A
9:53 am 09:53 Sunny 71 21.7 25 -3.9 18 18 N N/A 29.70 1006 10 16 N/A
10:53 am 10:53 Sunny 74 23.3 27 -2.8 17 17 SSE 8 13 29.68 1005 10 16 N/A
11:53 am 11:53 Sunny 77 25 26 -3.3 15 15 N N/A 29.68 1005 10 16 N/A
12:53 pm 12:53 Sunny 79 26.1 26 -3.3 14 14 undefined N/A 29.67 1005 10 16 N/A
1:53 pm 13:53 Sunny 81 27.2 25 -3.9 13 13 VRB 7 11 29.64 1004 10 16 N/A
2:53 pm 14:53 Sunny 82 27.8 25 -3.9 12 12 S 10 17 29.62 1003 10 16 N/A
3:53 pm 15:53 Sunny 83 28.3 25 -3.9 12 12 N N/A 29.59 1002 10 16 N/A
4:53 pm 16:53 Sunny 83 28.3 27 -2.8 13 13 undefined N/A 29.57 1001 10 16 N/A
5:53 pm 17:53 Sunny 84 28.9 25 -3.9 11 11 N 10 17 29.56 1001 10 16 N/A
6:27 pm 18:27 Sunny 82 27.8 28 -2.2 14 14 SW 14 22 29.44 997 10 16 N/A
6:53 pm 18:53 Sunny 80 26.7 29 -1.7 15 15 WSW 10 17 29.56 1001 10 16 N/A
7:53 pm 19:53 Clear 78 25.6 30 -1.1 17 17 WNW 7 11 29.57 1002 10 16 N/A
8:53 pm 20:53 Clear 76 24.4 31 -0.6 19 19 SSW 5 7 29.58 1002 10 16 N/A
9:53 pm 21:53 Clear 75 23.9 31 -0.6 20 20 SSW 7 11 29.59 1002 10 16 N/A
10:53 pm 22:53 Clear 75 23.9 27 -2.8 17 17 NNW 21 33 29.58 1002 10 16 N/A
11:53 pm 23:53 Clear 73 22.8 24 -4.4 16 16 N 14 22 29.61 1003 10 16 N/A

Powered by AerisWeather